Погода Ханты-Мансийск

Погода Ханты-Мансийск : погода сейчас, прогноз погоды и архив. Всё, что Вы хотите узнать о погоде Ханты-Мансийск!

Хотите узнать прогноз погоды Ханты-Мансийск? Тогда Вам сюда: Погода Ханты-Мансийск

Поиск расширенной информации на нашем сайте:

Полезная информация:

Другие новости

Новости СМИ2

Главная страница сайта

Новости сайта

03.07.2017

Напоминаем, что на нашем специализированном сайте Метеоцентр.Азия вы можете получить высокодетализированные автоматические прогнозы погоды по пунктам России, СНГ и мира в авиационном формате (включающие направление и скорость ветра, видимость, явления погоды, количество и форму облачности, нижнюю и верхнюю границу облачности).

Рекомендуем:

Погода Ханты-Мансийск - сегодня

Время (UTC), дата Ветер
(°,м/с) 
Видим.   Явления Облачность Т
(°С)
Тd
(°С)
f(%) Тe
(°С)
Pmin
(гПа)
dP
(гПа)
Po
(мм)
O2
(г/м3)
Тmin Tmax R s Состояние
почвы
12 15.07.19 130 (ЮВ) 10 км    9/1 1000 м средняя, верхняя 
[Cu hum|As trans|Cc]
+30.4 +19.6 53 +48  1010.3  -0.9  754  269           
15 15.07.19 110 (В) 10 км    9/0 средняя, верхняя 
[Ac trans|Cc]
+28.1 +19 58 +44  1009.6  -0.8  753  271    +31       
18 15.07.19 130 (ЮВ) 10 км    8/0 верхняя 
[Cc]
+25.7 +19.3 68 +43  1009.4  -0.2  753  273           
21 15.07.19 150 (ЮВ) 10 км    8/0 верхняя 
[Cc]
+21.4 +16.4 73 +32  1009.3  -0.2  753  278           
00 16.07.19 130 (ЮВ) 10 км    4/0 средняя 
[Ac cast]
+19.7 +15.5 77 +30  1009.2  0.1  753  280           
03 16.07.19 120 (ЮВ) 10 км    9/0 средняя, верхняя 
[Ac trans|Cc]
+23.3 +16.3 65 +34  1008.7  -0.4  753  276  +19.6         
06 16.07.19 110 (В) 10 км    10/0 верхняя 
[Ci]
+27.6 +16.1 50 +38  1007.4  -1.2  752  272           
09 16.07.19 110 (В) 10 км    4/0 верхняя 
[Ci fib]
+30.8 +15.3 39 +40  1006.6  -0.7  751  269           
12 16.07.19 120 (ЮВ) 10 км    3/0 верхняя 
[Ci fib]
+31.2 +16.1 40 +42  1005.2  -1.4  750  268           
15 16.07.19 100 (В) 10 км    ясно 
+28.7 +16.6 48 +40  1004.6  -0.6  750  270    +31.6       
18 16.07.19 100 (В) 10 км    10/0 верхняя 
[Cs]
+25.1 +15 53 +34  1004.4  -0.3  749  273           
21 16.07.19 100 (В) 10 км    6/6 1000 м 
[Cu med, cong]
+22.5 +14.2 59 +30  1003.7  -0.7  749  276           
00 17.07.19 120 (ЮВ) 10 км    10/4 1000 м верхняя 
[Cu Sc|Ci]
+20.3 +14.2 68 +28  1003.9  0.2  749  278           
03 17.07.19 120 (ЮВ) 10 км    10/6 1000 м верхняя 
[Cu Sc|Ci]
+21.8 +16 70 +32  1004  -0.1  749  276  +20.3         
06 17.07.19 080 (В) 4000 м  гроза, ливневой дождь  10/10 600 м кучево-дожд. 
[Cb cap]
+19.6 +18 90 +35  1004.9  0.8  750  278  +19.6         
09 17.07.19 250 (З) 10 км  в посл. час ливневой дождь{гроза}  10/10 600 м кучево-дожд. 
[Cb cap]
+20.7 +17 79 +33  1005.8  0.9  751  277           
12 17.07.19 140 (ЮВ) 10 км  в посл. час ливневой дождь{гроза}  10/10 600 м кучево-дожд. 
[Cb cap]
+20.8 +17.3 80 +34  1006.3  0.5  751  277           
15 17.07.19 250 (З) 10 км    3/3 600 м 
[Sc]
+19.1 +12.7 66 +25  1007.3  752  281    +23.9  16     
18 17.07.19 тихо ()   10 км    8/0 
[Sc]
+15.2 +12.4 83 +20  1007.8  0.4  752  285           
21 17.07.19 220 (ЮЗ) 10 км    10/10 600 м 
[Sc]
+15.8 +12.2 79 +21  1007.4  -0.3  752  284           
00 18.07.19 200 (Ю) 10 км    10/10 600 м кучево-дожд. 
[Cb cap]
+15.4 +12 80 +21  1008  0.5  752  285           
03 18.07.19 210 (ЮЗ) 10 км  в посл. час ливневой дождь  10/10 600 м кучево-дожд. 
[Cb cap]
+15.8 +11.2 74 +20  1008.6  0.6  752  285  +13.1    0.0     
06 18.07.19 190 (Ю) 10 км  в посл. час ливневой дождь  10/10 600 м кучево-дожд. 
[Cb cap]
+17 +12.1 73 +22  1009.1  0.6  753  283           
09 18.07.19 180 (Ю) 10 км    8/8 600 м кучево-дожд. 
[Cb cap]
+19.8 +13 65 +26  1009.4  0.3  753  280           
12 18.07.19 тихо ()   10 км    9/9 600 м кучево-дожд. 
[Cb cap]
+20.4 +13.4 64 +26  1009.9  0.5  754  280           
Время (UTC), дата Ветер
(°,м/с) 
Видим.   Явления Облачность Т
(°С)
Тd
(°С)
f(%) Тe
(°С)
Pmin
(гПа)
dP
(гПа)
Po
(мм)
O2
(г/м3)
Тmin Tmax R s Состояние
почвы

Для получения пояснительной информации подведите курсор к названию столбца.

ПОГОДА Ханты-Мансийск - архив

Всё, что Вы хотите узнать о погоде Ханты-Мансийск - удобно и подробно!

Выберите нужную дату (начиная с 1 января 2018* года) и нажмите кнопку "Найти".
Будут отображены архивные сводки погоды по пункту Ханты-Мансийск, начиная с указанной даты.


Отображать данные в формате CSV (для использования в таблицах Excel)


Внимание! Наш архив погоды предназначен исключительно для личного некоммерческого использования в познавательных целях. Если Вам необходимы официальные справки о состоянии погоды (для производственных, юридических, коммерческих и т.п. целей), обращайтесь в органы Росгидромета.

*Примечание: данная дата относится к архиву по метеостанциям СССР (Россия, СНГ, Балтия).
Архив по метеостанциям Зарубежной Европы и Азии (кроме Китая) хранится 10 дней, по другим регионам земного шара (Китай, Африка, Америка, Австралия, Океания) - 1 день.

Ханты-Мансийск - район местоположения метеостанции


Название, широта, долгота, высота метеостанции:
Ханты-Мансийск 61°ш. 69°д. 46 м над ур. моря [Российская Федерация]

Дополнительная информация

В oтличие oт бoльшинства пoгoдных сайтoв мы публикуем пoдрoбную метеoинфoрмацию в детальнoм прoфессиoнальнoм фoрмате.

Характеристики температуры и влажнoсти вoздуха измеряются на высoте 2 м в тени вдали oт зданий и деревьев.
Скoрoсть ветра измеряется на высoте 10 м (на урoвне рoста челoвека скoрoсть ветра ниже в 1.5-2 раза). Если метеoстанция нахoдится в гoрoде или в лесу, тo скoрoсть ветра занижена на 2-4 м/с пo сравнению с oткрытым местoм. Скoрoсть ветра над акватoриями крупных рек и oзёр, а также на вершинах хoлмoв на 2-5 м/с выше, чем в oбычных услoвиях.
Атмoсфернoе давление в разных тoчках местнoсти мoжет значительнo oтличаться oт давления на метеoстанции, в зависимoсти oт услoвий рельефа (при пoдъёме на 10 м давление пoнижается примернo на 1 мм рт.ст.).